Barrow, AK

3:11 PM AKST on November 21, 2017 (GMT -0900)
Wiley Post-Will Rogers Memorial

Weather History for PABR - May, 2013

Change the Weather History Date:

Thursday, May 16, 2013

  Actual Average Record
Temperature  
Mean Temperature 17 °F 21 °F  
Max Temperature 28 °F 26 °F 40 °F (1938)
Min Temperature 5 °F 17 °F -4 °F (1924)
Degree Days  
Heating Degree Days 48 44  
Month to date heating degree days 764 770  
Since 1 July heating degree days 16899 17930  
Cooling Degree Days 0 0  
Month to date cooling degree days 0 0  
Year to date cooling degree days 0 0  
Moisture  
Dew Point 10 °F    
Average Humidity 0    
Maximum Humidity 0    
Minimum Humidity 0    
Precipitation  
Precipitation 0.00 in 0.01 in 0.09 in (2015)
Month to date precipitation 0.13 0.08  
Year to date precipitation 0.95 0.60  
Snow  
Snow 0.00 in 0.10 in 0.70 in (1945)
Month to date snowfall 3.9 1.5  
Since 1 July snowfall 61.0 35.8  
Snow Depth 5.00 in    
Sea Level Pressure  
Sea Level Pressure 29.45 in    
Wind  
Wind Speed 9 mph (ESE)    
Max Wind Speed 18 mph    
Max Gust Speed 21 mph    
Visibility 7 miles    
Events Fog    
T = Trace of Precipitation, MM = Missing Value Source: NWS Daily Summary

Daily Weather History Graph

Daily Weather History Graph

Search for Another Location

Airport or City:

Trip Planner

Search our weather history database for the weather conditions in past years. The results will help you decide how hot, cold, wet, or windy it might be!

Date:

Astronomy

May. 16, 2013 Rise Set
Actual Time 2:55 AM AKDT 1:51 AM AKDT
Civil Twilight Sun does not rise Sun does not rise
Nautical Twilight Sun does not rise Sun does not rise
Astronomical Twilight Sun does not rise Sun does not rise
Moon 10:48 AM AKDT (5/16) 4:20 AM AKDT (5/16)
Length of Visible Light 24h 00m
Length of Day
22h 55m
Waxing Crescent, 37% of the Moon is Illuminated
May 16
Waxing Crescent
May 17
First Quarter
May 24
Full
May 31
Last Quarter
Jun 8
New

Hourly Weather History & Observations

Time (AKDT) Temp. Windchill Dew Point Humidity Pressure Visibility Wind Dir Wind Speed Gust Speed Precip Events Conditions
12:53 AM 8.1 °F -4.3 °F 3.9 °F 83% 29.53 in 10.0 mi SSE 8.1 mph - N/A   Scattered Clouds
1:53 AM 8.1 °F -0.5 °F 3.9 °F 83% 29.52 in 10.0 mi SSE 4.6 mph - N/A   Scattered Clouds
2:35 AM 8.6 °F 0.1 °F 6.8 °F 92% 29.51 in 0.8 mi SSE 4.6 mph - N/A   Scattered Clouds
2:51 AM 8.6 °F -1.3 °F 3.2 °F 79% 29.51 in 0.2 mi SE 5.8 mph - N/A Fog Light Freezing Fog
2:53 AM 8.1 °F -3.2 °F 5.0 °F 87% 29.51 in 0.2 mi East 6.9 mph - N/A Fog Light Freezing Fog
3:21 AM 5.0 °F -5.6 °F 3.2 °F 92% 29.50 in 5.0 mi ESE 5.8 mph - N/A   Scattered Clouds
3:41 AM 6.8 °F -4.8 °F 3.2 °F 85% 29.50 in 0.5 mi ESE 6.9 mph - N/A Fog Light Freezing Fog
3:53 AM 8.1 °F -4.3 °F 3.9 °F 83% 29.51 in 0.2 mi ESE 8.1 mph - N/A Fog Light Freezing Fog
4:53 AM 7.0 °F -4.5 °F 3.9 °F 87% 29.50 in 0.2 mi East 6.9 mph - N/A Fog Light Freezing Fog
5:09 AM 6.8 °F -4.8 °F 3.2 °F 85% 29.49 in 0.2 mi East 6.9 mph - N/A Fog Light Freezing Fog
5:16 AM 8.6 °F -3.7 °F 5.0 °F 85% 29.49 in 6.0 mi ESE 8.1 mph - N/A   Scattered Clouds
5:53 AM 7.0 °F -5.7 °F 3.9 °F 87% 29.49 in 7.0 mi ESE 8.1 mph - N/A   Scattered Clouds
6:53 AM 9.0 °F -4.2 °F 5.0 °F 84% 29.48 in 10.0 mi ESE 9.2 mph - N/A   Scattered Clouds
7:53 AM 7.0 °F -6.6 °F 3.0 °F 84% 29.47 in 10.0 mi ESE 9.2 mph - N/A   Mostly Cloudy
8:53 AM 9.0 °F -3.2 °F 3.9 °F 80% 29.46 in 10.0 mi East 8.1 mph - N/A   Scattered Clouds
9:53 AM 12.0 °F 0.5 °F 8.1 °F 84% 29.45 in 10.0 mi East 8.1 mph - N/A   Scattered Clouds
10:53 AM 16.0 °F 5.3 °F 10.9 °F 81% 29.43 in 10.0 mi East 8.1 mph - N/A   Mostly Cloudy
11:53 AM 19.0 °F 8.2 °F 12.9 °F 77% 29.42 in 10.0 mi ENE 9.2 mph - N/A   Mostly Cloudy
12:53 PM 21.9 °F 11.0 °F 16.0 °F 78% 29.42 in 10.0 mi East 10.4 mph - N/A   Overcast
1:53 PM 23.0 °F 11.7 °F 16.0 °F 74% 29.40 in 10.0 mi ENE 11.5 mph - N/A   Mostly Cloudy
2:53 PM 24.1 °F 14.4 °F 18.0 °F 77% 29.40 in 10.0 mi East 9.2 mph - N/A   Partly Cloudy
3:53 PM 25.0 °F 14.2 °F 18.0 °F 75% 29.39 in 10.0 mi ENE 11.5 mph - N/A   Scattered Clouds
4:53 PM 24.1 °F 13.7 °F 19.0 °F 81% 29.38 in 10.0 mi East 10.4 mph - N/A   Mostly Cloudy
5:33 PM 24.8 °F 15.3 °F 19.4 °F 80% 29.38 in 10.0 mi ESE 9.2 mph - N/A   Mostly Cloudy
5:53 PM 25.0 °F 14.8 °F 19.0 °F 78% 29.38 in 10.0 mi ESE 10.4 mph - N/A   Mostly Cloudy
6:53 PM 24.1 °F 16.0 °F 19.0 °F 81% 29.38 in 10.0 mi SE 6.9 mph - N/A   Overcast
7:53 PM 24.1 °F 16.0 °F 19.0 °F 81% 29.37 in 10.0 mi ESE 6.9 mph - N/A   Overcast
8:53 PM 24.1 °F 12.5 °F 19.0 °F 81% 29.37 in 10.0 mi ESE 12.7 mph - N/A   Overcast
9:53 PM 27.0 °F 17.3 °F 19.0 °F 72% 29.38 in 10.0 mi South 10.4 mph - N/A   Overcast
10:53 PM 24.1 °F 11.0 °F 16.0 °F 71% 29.40 in 10.0 mi SSW 16.1 mph - N/A   Overcast
11:53 PM 21.0 °F 8.1 °F 15.1 °F 78% 29.41 in 10.0 mi SSW 13.8 mph - N/A   Overcast